Time,TemperatureF,DewpointF,PressureIn,WindDirection,WindDirectionDegrees,WindSpeedMPH,WindSpeedGustMPH,Humidity,HourlyPrecipIn,Conditions,Clouds,dailyrainin,SoftwareType,DateUTC
2013-06-02 00:00:00,54.3,37.0,30.03,North,356,0.0,4.0,52,0.00,,,0.01,Wunderground v.1.15,2013-06-02 07:00:00,
2013-06-02 00:05:00,54.1,34.3,30.03,North,356,0.0,4.0,47,0.00,,,0.00,Wunderground v.1.15,2013-06-02 07:05:00,
2013-06-02 00:14:00,53.8,29.4,30.04,North,357,0.0,4.0,39,0.00,,,0.00,Wunderground v.1.15,2013-06-02 07:14:00,
2013-06-02 00:19:00,53.7,25.2,30.03,North,357,0.0,4.0,33,0.00,,,0.00,Wunderground v.1.15,2013-06-02 07:19:00,
2013-06-02 00:25:00,53.6,23.7,30.04,North,356,0.0,4.0,31,0.00,,,0.00,Wunderground v.1.15,2013-06-02 07:25:00,
2013-06-02 00:30:00,53.5,23.6,30.04,North,356,0.0,4.0,31,0.00,,,0.00,Wunderground v.1.15,2013-06-02 07:30:00,
2013-06-02 00:35:00,53.4,22.7,30.04,North,356,0.0,4.0,30,0.00,,,0.00,Wunderground v.1.15,2013-06-02 07:35:00,
2013-06-02 00:44:00,53.4,19.3,30.04,North,356,0.0,4.0,26,0.00,,,0.00,Wunderground v.1.15,2013-06-02 07:44:00,
2013-06-02 00:50:00,53.3,21.8,30.04,North,8,0.0,4.0,29,0.00,,,0.00,Wunderground v.1.15,2013-06-02 07:50:00,
2013-06-02 00:55:00,53.2,20.0,30.04,North,9,0.0,4.0,27,0.00,,,0.00,Wunderground v.1.15,2013-06-02 07:55:00,
2013-06-02 01:00:00,53.2,14.2,30.03,North,9,0.0,4.0,21,0.00,,,0.00,Wunderground v.1.15,2013-06-02 08:00:00,
2013-06-02 01:05:00,53.2,13.1,30.03,North,9,0.0,4.0,20,0.00,,,0.00,Wunderground v.1.15,2013-06-02 08:05:00,
2013-06-02 01:15:00,53.1,3.5,30.03,North,9,0.0,4.0,13,0.00,,,0.00,Wunderground v.1.15,2013-06-02 08:15:00,
2013-06-02 01:20:00,53.1,1.7,30.03,North,9,0.0,4.0,12,0.00,,,0.00,Wunderground v.1.15,2013-06-02 08:20:00,
2013-06-02 01:25:00,53.0,3.4,30.03,North,7,0.0,4.0,13,0.00,,,0.00,Wunderground v.1.15,2013-06-02 08:25:00,
2013-06-02 01:30:00,53.0,5.0,30.03,North,7,0.0,4.0,14,0.00,,,0.00,Wunderground v.1.15,2013-06-02 08:30:00,
2013-06-02 01:35:00,53.0,3.4,30.03,North,6,0.0,4.0,13,0.00,,,0.00,Wunderground v.1.15,2013-06-02 08:35:00,
2013-06-02 01:45:00,52.9,-99.9,30.03,North,7,0.0,4.0,0,0.00,,,0.00,Wunderground v.1.15,2013-06-02 08:45:00,
2013-06-02 01:50:00,52.8,-99.9,30.03,North,6,0.0,4.0,0,0.00,,,0.00,Wunderground v.1.15,2013-06-02 08:50:00,
2013-06-02 01:55:00,52.6,-99.9,30.03,North,7,0.0,4.0,0,0.00,,,0.00,Wunderground v.1.15,2013-06-02 08:55:00,
2013-06-02 02:05:00,52.4,-99.9,30.03,North,6,0.0,4.0,0,0.00,,,0.00,Wunderground v.1.15,2013-06-02 09:05:00,
2013-06-02 02:10:00,52.3,-99.9,30.03,North,6,0.0,4.0,0,0.00,,,0.00,Wunderground v.1.15,2013-06-02 09:10:00,
2013-06-02 02:15:00,52.2,-99.9,30.03,North,6,0.0,4.0,0,0.00,,,0.00,Wunderground v.1.15,2013-06-02 09:15:00,
2013-06-02 02:20:00,52.2,-99.9,30.03,North,6,0.0,4.0,0,0.00,,,0.00,Wunderground v.1.15,2013-06-02 09:20:00,
2013-06-02 02:25:00,52.2,-99.9,30.03,North,6,0.0,4.0,0,0.00,,,0.00,Wunderground v.1.15,2013-06-02 09:25:00,
2013-06-02 02:35:00,52.1,-99.9,30.03,North,6,0.0,4.0,0,0.00,,,0.00,Wunderground v.1.15,2013-06-02 09:35:00,
2013-06-02 02:40:00,52.1,-99.9,30.03,North,6,0.0,4.0,0,0.00,,,0.00,Wunderground v.1.15,2013-06-02 09:40:00,
2013-06-02 02:45:00,52.0,-99.9,30.03,North,6,0.0,4.0,0,0.00,,,0.00,Wunderground v.1.15,2013-06-02 09:45:00,
2013-06-02 02:50:00,51.9,-99.9,30.03,North,6,0.0,4.0,0,0.00,,,0.00,Wunderground v.1.15,2013-06-02 09:50:00,
2013-06-02 02:55:00,51.9,-99.9,30.03,North,6,0.0,4.0,0,0.00,,,0.00,Wunderground v.1.15,2013-06-02 09:55:00,
2013-06-02 03:05:00,51.7,-99.9,30.03,North,6,0.0,4.0,0,0.00,,,0.00,Wunderground v.1.15,2013-06-02 10:05:00,
2013-06-02 03:10:00,51.6,-99.9,30.03,North,7,0.0,4.0,0,0.00,,,0.00,Wunderground v.1.15,2013-06-02 10:10:00,
2013-06-02 03:15:00,51.6,-99.9,30.03,North,6,0.0,4.0,0,0.00,,,0.00,Wunderground v.1.15,2013-06-02 10:15:00,
2013-06-02 03:20:00,51.4,-99.9,30.03,North,6,0.0,4.0,0,0.00,,,0.00,Wunderground v.1.15,2013-06-02 10:20:00,
2013-06-02 03:30:00,51.3,-99.9,30.03,NNE,18,0.0,4.0,0,0.00,,,0.00,Wunderground v.1.15,2013-06-02 10:30:00,
2013-06-02 03:35:00,51.3,-99.9,30.03,NNE,18,0.0,4.0,0,0.00,,,0.00,Wunderground v.1.15,2013-06-02 10:35:00,
2013-06-02 03:40:00,51.2,-99.9,30.03,NNE,18,0.0,4.0,0,0.00,,,0.00,Wunderground v.1.15,2013-06-02 10:40:00,
2013-06-02 03:45:00,51.1,-99.9,30.03,NNE,18,0.0,4.0,0,0.00,,,0.00,Wunderground v.1.15,2013-06-02 10:45:00,
2013-06-02 03:55:00,51.0,-99.9,30.03,NNE,18,0.0,4.0,0,0.00,,,0.00,Wunderground v.1.15,2013-06-02 10:55:00,
2013-06-02 04:00:00,50.9,-99.9,30.03,NNE,18,0.0,4.0,0,0.00,,,0.00,Wunderground v.1.15,2013-06-02 11:00:00,
2013-06-02 04:05:00,50.9,-99.9,30.03,NNE,18,0.0,4.0,0,0.00,,,0.00,Wunderground v.1.15,2013-06-02 11:05:00,
2013-06-02 04:10:00,50.9,-99.9,30.03,NNE,18,0.0,4.0,0,0.00,,,0.00,Wunderground v.1.15,2013-06-02 11:10:00,
2013-06-02 04:20:00,50.8,-99.9,30.03,NNE,18,0.0,4.0,0,0.00,,,0.00,Wunderground v.1.15,2013-06-02 11:20:00,
2013-06-02 04:25:00,50.7,-99.9,30.03,NNE,18,0.0,4.0,0,0.00,,,0.00,Wunderground v.1.15,2013-06-02 11:25:00,
2013-06-02 04:30:00,50.7,-99.9,30.02,NNE,18,0.0,4.0,0,0.00,,,0.00,Wunderground v.1.15,2013-06-02 11:30:00,
2013-06-02 04:35:00,50.6,-99.9,30.03,NNE,18,0.0,4.0,0,0.00,,,0.00,Wunderground v.1.15,2013-06-02 11:35:00,
2013-06-02 04:40:00,50.4,-99.9,30.03,NNE,18,0.0,4.0,0,0.00,,,0.00,Wunderground v.1.15,2013-06-02 11:40:00,
2013-06-02 04:50:00,50.4,-99.9,30.03,North,3,0.0,4.0,0,0.00,,,0.00,Wunderground v.1.15,2013-06-02 11:50:00,
2013-06-02 04:55:00,50.2,-99.9,30.03,North,4,0.0,4.0,0,0.00,,,0.00,Wunderground v.1.15,2013-06-02 11:55:00,
2013-06-02 05:00:00,50.1,-99.9,30.03,North,5,0.0,4.0,0,0.00,,,0.00,Wunderground v.1.15,2013-06-02 12:00:00,
2013-06-02 05:05:00,49.9,-99.9,30.03,North,4,0.0,4.0,0,0.00,,,0.00,Wunderground v.1.15,2013-06-02 12:05:00,
2013-06-02 05:10:00,49.8,-99.9,30.03,North,3,0.0,4.0,0,0.00,,,0.00,Wunderground v.1.15,2013-06-02 12:10:00,
2013-06-02 05:20:00,49.6,-99.9,30.03,North,4,0.0,4.0,0,0.00,,,0.00,Wunderground v.1.15,2013-06-02 12:20:00,
2013-06-02 05:25:00,49.5,-99.9,30.04,North,4,0.0,4.0,0,0.00,,,0.00,Wunderground v.1.15,2013-06-02 12:25:00,
2013-06-02 05:30:00,49.4,-99.9,30.04,North,5,0.0,4.0,0,0.00,,,0.00,Wunderground v.1.15,2013-06-02 12:30:00,
2013-06-02 05:35:00,49.5,-99.9,30.04,North,4,0.0,4.0,0,0.00,,,0.00,Wunderground v.1.15,2013-06-02 12:35:00,
2013-06-02 05:45:00,49.6,-99.9,30.04,North,3,0.0,4.0,0,0.00,,,0.00,Wunderground v.1.15,2013-06-02 12:45:00,
2013-06-02 05:50:00,49.7,-99.9,30.04,North,3,0.0,4.0,0,0.00,,,0.00,Wunderground v.1.15,2013-06-02 12:50:00,
2013-06-02 05:55:00,49.7,-99.9,30.04,North,4,0.0,4.0,0,0.00,,,0.00,Wunderground v.1.15,2013-06-02 12:55:00,
2013-06-02 06:05:00,50.0,-99.9,30.04,North,4,0.0,4.0,0,0.00,,,0.00,Wunderground v.1.15,2013-06-02 13:05:00,
2013-06-02 06:10:00,50.2,-99.9,30.04,North,3,0.0,4.0,0,0.00,,,0.00,Wunderground v.1.15,2013-06-02 13:10:00,
2013-06-02 06:15:00,50.3,-99.9,30.05,North,3,0.0,4.0,0,0.00,,,0.00,Wunderground v.1.15,2013-06-02 13:15:00,
2013-06-02 06:20:00,50.5,-99.9,30.05,North,5,0.0,4.0,0,0.00,,,0.00,Wunderground v.1.15,2013-06-02 13:20:00,
2013-06-02 06:25:00,50.6,-99.9,30.05,North,5,0.0,4.0,0,0.00,,,0.00,Wunderground v.1.15,2013-06-02 13:25:00,
2013-06-02 06:35:00,50.9,-99.9,30.05,North,7,0.0,4.0,0,0.00,,,0.00,Wunderground v.1.15,2013-06-02 13:35:00,
2013-06-02 06:40:00,51.1,-99.9,30.05,NW,307,0.0,4.0,0,0.00,,,0.00,Wunderground v.1.15,2013-06-02 13:40:00,
2013-06-02 06:45:00,51.2,-99.9,30.05,SSW,211,1.0,4.0,0,0.00,,,0.00,Wunderground v.1.15,2013-06-02 13:45:00,
2013-06-02 06:50:00,51.6,-99.9,30.05,SSW,211,0.0,4.0,0,0.00,,,0.00,Wunderground v.1.15,2013-06-02 13:50:00,
2013-06-02 06:55:00,52.0,-99.9,30.05,SW,217,0.0,4.0,0,0.00,,,0.00,Wunderground v.1.15,2013-06-02 13:55:00,
2013-06-02 07:05:00,52.3,-99.9,30.05,NNW,332,0.0,4.0,0,0.00,,,0.00,Wunderground v.1.15,2013-06-02 14:05:00,
2013-06-02 07:10:00,52.7,-99.9,30.05,SE,141,1.0,4.0,0,0.00,,,0.00,Wunderground v.1.15,2013-06-02 14:10:00,
2013-06-02 07:15:00,52.9,-99.9,30.05,NE,56,1.0,4.0,0,0.00,,,0.00,Wunderground v.1.15,2013-06-02 14:15:00,
2013-06-02 07:25:00,53.1,-99.9,30.05,ENE,68,1.0,4.0,0,0.00,,,0.00,Wunderground v.1.15,2013-06-02 14:25:00,
2013-06-02 07:30:00,53.7,-99.9,30.05,ENE,63,0.0,4.0,0,0.00,,,0.00,Wunderground v.1.15,2013-06-02 14:30:00,
2013-06-02 07:35:00,54.3,-19.8,30.05,ENE,63,0.0,4.0,4,0.00,,,0.00,Wunderground v.1.15,2013-06-02 14:35:00,
2013-06-02 07:40:00,54.8,18.6,30.05,ENE,63,0.0,4.0,24,0.00,,,0.00,Wunderground v.1.15,2013-06-02 14:40:00,
2013-06-02 07:50:00,55.7,42.5,30.05,NW,323,1.0,4.0,61,0.00,,,0.00,Wunderground v.1.15,2013-06-02 14:50:00,
2013-06-02 07:55:00,56.1,46.8,30.05,NW,304,1.0,4.0,71,0.00,,,0.00,Wunderground v.1.15,2013-06-02 14:55:00,
2013-06-02 08:00:00,56.1,42.8,30.05,West,269,1.0,1.0,61,0.00,,,0.00,Wunderground v.1.15,2013-06-02 15:00:00,
2013-06-02 08:05:00,56.1,46.8,30.05,WNW,287,1.0,4.0,71,0.00,,,0.00,Wunderground v.1.15,2013-06-02 15:05:00,
2013-06-02 08:10:00,55.9,47.4,30.05,WNW,290,1.0,1.0,73,0.00,,,0.00,Wunderground v.1.15,2013-06-02 15:10:00,
2013-06-02 08:20:00,55.8,46.2,30.05,WNW,291,0.0,4.0,70,0.00,,,0.00,Wunderground v.1.15,2013-06-02 15:20:00,
2013-06-02 08:25:00,55.7,46.8,30.05,SW,232,0.0,4.0,72,0.00,,,0.00,Wunderground v.1.15,2013-06-02 15:25:00,
2013-06-02 08:30:00,55.6,46.7,30.05,WNW,293,1.0,1.0,72,0.00,,,0.00,Wunderground v.1.15,2013-06-02 15:30:00,
2013-06-02 08:35:00,55.7,45.7,30.05,West,270,1.0,4.0,69,0.00,,,0.00,Wunderground v.1.15,2013-06-02 15:35:00,
2013-06-02 08:45:00,55.9,45.1,30.05,West,266,1.0,4.0,67,0.00,,,0.00,Wunderground v.1.15,2013-06-02 15:45:00,
2013-06-02 08:50:00,56.0,47.1,30.05,WNW,303,1.0,1.0,72,0.00,,,0.00,Wunderground v.1.15,2013-06-02 15:50:00,
2013-06-02 08:55:00,55.9,47.4,30.05,NW,310,1.0,4.0,73,0.00,,,0.00,Wunderground v.1.15,2013-06-02 15:55:00,
2013-06-02 09:00:00,55.9,48.4,30.05,North,355,1.0,4.0,76,0.00,,,0.00,Wunderground v.1.15,2013-06-02 16:00:00,
2013-06-02 09:10:00,56.2,48.4,30.05,WNW,285,1.0,4.0,75,0.00,,,0.00,Wunderground v.1.15,2013-06-02 16:10:00,
2013-06-02 09:15:00,56.3,48.8,30.05,WSW,244,1.0,4.0,76,0.00,,,0.00,Wunderground v.1.15,2013-06-02 16:15:00,
2013-06-02 09:20:00,56.2,48.7,30.06,WNW,297,1.0,4.0,76,0.00,,,0.00,Wunderground v.1.15,2013-06-02 16:20:00,
2013-06-02 09:25:00,56.3,47.4,30.06,WNW,294,1.0,4.0,72,0.00,,,0.00,Wunderground v.1.15,2013-06-02 16:25:00,
2013-06-02 09:30:00,56.6,48.4,30.06,NNW,333,1.0,4.0,74,0.00,,,0.00,Wunderground v.1.15,2013-06-02 16:30:00,
2013-06-02 09:40:00,57.0,49.5,30.05,WNW,301,1.0,4.0,76,0.00,,,0.00,Wunderground v.1.15,2013-06-02 16:40:00,
2013-06-02 09:45:00,56.9,49.1,30.06,WNW,295,2.0,4.0,75,0.00,,,0.00,Wunderground v.1.15,2013-06-02 16:45:00,
2013-06-02 09:50:00,57.0,49.5,30.05,North,355,2.0,4.0,76,0.00,,,0.00,Wunderground v.1.15,2013-06-02 16:50:00,
2013-06-02 09:55:00,57.1,49.6,30.06,WNW,298,2.0,4.0,76,0.00,,,0.00,Wunderground v.1.15,2013-06-02 16:55:00,
2013-06-02 10:00:00,56.8,49.7,30.06,NW,312,2.0,4.0,77,0.00,,,0.00,Wunderground v.1.15,2013-06-02 17:00:00,
2013-06-02 10:10:00,56.8,49.3,30.06,West,281,1.0,4.0,76,0.00,,,0.00,Wunderground v.1.15,2013-06-02 17:10:00,
2013-06-02 10:15:00,56.5,49.0,30.06,WSW,249,2.0,4.0,76,0.00,,,0.00,Wunderground v.1.15,2013-06-02 17:15:00,
2013-06-02 10:20:00,56.4,48.9,30.06,West,267,2.0,2.0,76,0.00,,,0.00,Wunderground v.1.15,2013-06-02 17:20:00,
2013-06-02 10:30:00,56.6,49.1,30.06,NW,316,1.0,4.0,76,0.00,,,0.00,Wunderground v.1.15,2013-06-02 17:30:00,
2013-06-02 10:35:00,56.9,49.1,30.06,WNW,283,1.0,4.0,75,0.00,,,0.00,Wunderground v.1.15,2013-06-02 17:35:00,
2013-06-02 10:40:00,57.3,50.1,30.06,NNW,339,1.0,1.0,77,0.00,,,0.00,Wunderground v.1.15,2013-06-02 17:40:00,
2013-06-02 10:45:00,57.7,49.5,30.06,West,263,2.0,2.0,74,0.00,,,0.00,Wunderground v.1.15,2013-06-02 17:45:00,
2013-06-02 10:50:00,58.2,50.7,30.06,WSW,239,1.0,4.0,76,0.00,,,0.00,Wunderground v.1.15,2013-06-02 17:50:00,
2013-06-02 11:00:00,58.9,51.3,30.06,ENE,67,1.0,4.0,76,0.00,,,0.00,Wunderground v.1.15,2013-06-02 18:00:00,
2013-06-02 11:05:00,59.1,51.5,30.06,WNW,295,2.0,4.0,76,0.00,,,0.00,Wunderground v.1.15,2013-06-02 18:05:00,
2013-06-02 11:10:00,58.8,51.2,30.06,NW,326,2.0,4.0,76,0.00,,,0.00,Wunderground v.1.15,2013-06-02 18:10:00,
2013-06-02 11:15:00,59.5,51.9,30.06,West,265,1.0,4.0,76,0.00,,,0.00,Wunderground v.1.15,2013-06-02 18:15:00,
2013-06-02 11:20:00,59.8,52.2,30.06,WNW,294,1.0,4.0,76,0.00,,,0.00,Wunderground v.1.15,2013-06-02 18:20:00,
2013-06-02 11:30:00,60.4,52.8,30.06,WNW,290,1.0,4.0,76,0.00,,,0.00,Wunderground v.1.15,2013-06-02 18:30:00,
2013-06-02 11:35:00,60.6,52.6,30.06,WNW,302,1.0,4.0,75,0.00,,,0.00,Wunderground v.1.15,2013-06-02 18:35:00,
2013-06-02 11:40:00,60.8,52.5,30.06,WNW,287,1.0,4.0,74,0.00,,,0.00,Wunderground v.1.15,2013-06-02 18:40:00,
2013-06-02 11:45:00,60.9,52.9,30.06,SW,226,1.0,4.0,75,0.00,,,0.00,Wunderground v.1.15,2013-06-02 18:45:00,
2013-06-02 11:55:00,62.1,54.4,30.06,NW,319,1.0,4.0,76,0.00,,,0.00,Wunderground v.1.15,2013-06-02 18:55:00,
2013-06-02 12:00:00,62.4,52.9,30.06,NE,34,2.0,4.0,71,0.00,,,0.00,Wunderground v.1.15,2013-06-02 19:00:00,
2013-06-02 12:05:00,62.6,54.9,30.06,SW,215,2.0,4.0,76,0.00,,,0.00,Wunderground v.1.15,2013-06-02 19:05:00,
2013-06-02 12:10:00,63.2,54.4,30.06,WNW,287,2.0,2.0,73,0.00,,,0.00,Wunderground v.1.15,2013-06-02 19:10:00,
2013-06-02 12:20:00,64.1,55.6,30.06,SW,217,2.0,6.0,74,0.00,,,0.00,Wunderground v.1.15,2013-06-02 19:20:00,
2013-06-02 12:25:00,64.1,54.5,30.06,SSW,193,3.0,6.0,71,0.00,,,0.00,Wunderground v.1.15,2013-06-02 19:25:00,
2013-06-02 12:30:00,64.5,53.3,30.05,WNW,295,3.0,3.0,67,0.00,,,0.00,Wunderground v.1.15,2013-06-02 19:30:00,
2013-06-02 12:35:00,64.4,54.4,30.05,SW,215,2.0,4.0,70,0.00,,,0.00,Wunderground v.1.15,2013-06-02 19:35:00,
2013-06-02 12:45:00,63.8,52.2,30.05,South,188,2.0,4.0,66,0.00,,,0.00,Wunderground v.1.15,2013-06-02 19:45:00,
2013-06-02 12:50:00,64.2,53.8,30.05,West,266,2.0,4.0,69,0.00,,,0.00,Wunderground v.1.15,2013-06-02 19:50:00,
2013-06-02 12:55:00,63.7,53.7,30.05,East,86,2.0,4.0,70,0.00,,,0.00,Wunderground v.1.15,2013-06-02 19:55:00,
2013-06-02 13:00:00,64.2,56.1,30.05,NNE,15,2.0,4.0,75,0.00,,,0.00,Wunderground v.1.15,2013-06-02 20:00:00,
2013-06-02 13:05:00,64.9,56.4,30.05,West,281,2.0,4.0,74,0.00,,,0.00,Wunderground v.1.15,2013-06-02 20:05:00,
2013-06-02 13:15:00,65.6,53.1,30.05,NE,49,2.0,4.0,64,0.00,,,0.00,Wunderground v.1.15,2013-06-02 20:15:00,
2013-06-02 13:20:00,66.3,55.8,30.05,WNW,295,2.0,2.0,69,0.00,,,0.00,Wunderground v.1.15,2013-06-02 20:20:00,
2013-06-02 13:25:00,65.8,53.3,30.05,SW,219,3.0,3.0,64,0.00,,,0.00,Wunderground v.1.15,2013-06-02 20:25:00,
2013-06-02 13:30:00,65.4,55.0,30.05,West,278,3.0,3.0,69,0.00,,,0.00,Wunderground v.1.15,2013-06-02 20:30:00,
2013-06-02 13:35:00,65.4,55.0,30.05,SW,231,3.0,4.0,69,0.00,,,0.00,Wunderground v.1.15,2013-06-02 20:35:00,
2013-06-02 13:45:00,65.6,54.3,30.05,SW,214,2.0,4.0,67,0.00,,,0.00,Wunderground v.1.15,2013-06-02 20:45:00,
2013-06-02 13:50:00,66.0,53.9,30.05,SW,229,2.0,4.0,65,0.00,,,0.00,Wunderground v.1.15,2013-06-02 20:50:00,
2013-06-02 13:55:00,65.4,53.7,30.05,West,281,2.0,4.0,66,0.00,,,0.00,Wunderground v.1.15,2013-06-02 20:55:00,
2013-06-02 14:05:00,65.7,54.8,30.05,West,271,2.0,4.0,68,0.00,,,0.00,Wunderground v.1.15,2013-06-02 21:05:00,
2013-06-02 14:10:00,66.4,53.0,30.05,ESE,106,2.0,4.0,62,0.00,,,0.00,Wunderground v.1.15,2013-06-02 21:10:00,
2013-06-02 14:15:00,66.5,53.1,30.05,SW,224,2.0,4.0,62,0.00,,,0.00,Wunderground v.1.15,2013-06-02 21:15:00,
2013-06-02 14:20:00,67.2,54.6,30.05,SW,233,3.0,3.0,64,0.00,,,0.00,Wunderground v.1.15,2013-06-02 21:20:00,
2013-06-02 14:25:00,67.1,53.6,30.04,East,86,2.0,4.0,62,0.00,,,0.00,Wunderground v.1.15,2013-06-02 21:25:00,
2013-06-02 14:35:00,66.5,53.1,30.04,SE,124,3.0,5.0,62,0.00,,,0.00,Wunderground v.1.15,2013-06-02 21:35:00,
2013-06-02 14:40:00,66.4,52.5,30.04,NW,311,2.0,2.0,61,0.00,,,0.00,Wunderground v.1.15,2013-06-02 21:40:00,
2013-06-02 14:45:00,66.3,54.2,30.04,North,6,2.0,4.0,65,0.00,,,0.00,Wunderground v.1.15,2013-06-02 21:45:00,
2013-06-02 14:50:00,66.4,51.6,30.04,South,191,2.0,4.0,59,0.00,,,0.00,Wunderground v.1.15,2013-06-02 21:50:00,
2013-06-02 15:00:00,67.2,53.3,30.04,WSW,255,2.0,2.0,61,0.00,,,0.00,Wunderground v.1.15,2013-06-02 22:00:00,
2013-06-02 15:05:00,67.4,54.4,30.04,West,267,1.0,4.0,63,0.00,,,0.00,Wunderground v.1.15,2013-06-02 22:05:00,
2013-06-02 15:10:00,68.6,56.4,30.04,SE,136,1.0,4.0,65,0.00,,,0.00,Wunderground v.1.15,2013-06-02 22:10:00,
2013-06-02 15:20:00,69.2,53.3,30.04,South,188,2.0,4.0,57,0.00,,,0.00,Wunderground v.1.15,2013-06-02 22:20:00,
2013-06-02 15:25:00,68.8,53.4,30.04,WNW,300,2.0,4.0,58,0.00,,,0.00,Wunderground v.1.15,2013-06-02 22:25:00,
2013-06-02 15:30:00,68.4,52.6,30.03,WNW,288,2.0,4.0,57,0.00,,,0.00,Wunderground v.1.15,2013-06-02 22:30:00,
2013-06-02 15:35:00,68.2,53.8,30.04,WSW,248,2.0,4.0,60,0.00,,,0.00,Wunderground v.1.15,2013-06-02 22:35:00,
2013-06-02 15:40:00,68.9,54.9,30.03,WSW,243,2.0,2.0,61,0.00,,,0.00,Wunderground v.1.15,2013-06-02 22:40:00,
2013-06-02 15:50:00,69.0,53.6,30.03,SW,224,2.0,5.0,58,0.00,,,0.00,Wunderground v.1.15,2013-06-02 22:50:00,
2013-06-02 15:55:00,68.5,52.2,30.03,South,175,3.0,5.0,56,0.00,,,0.00,Wunderground v.1.15,2013-06-02 22:55:00,
2013-06-02 16:00:00,68.1,53.2,30.03,WSW,250,3.0,3.0,59,0.00,,,0.00,Wunderground v.1.15,2013-06-02 23:00:00,
2013-06-02 16:05:00,68.9,56.2,30.03,SSW,194,2.0,4.0,64,0.00,,,0.00,Wunderground v.1.15,2013-06-02 23:05:00,
2013-06-02 16:10:00,69.7,53.3,30.03,NW,312,1.0,5.0,56,0.00,,,0.00,Wunderground v.1.15,2013-06-02 23:10:00,
2013-06-02 16:20:00,69.5,54.5,30.03,SW,226,2.0,2.0,59,0.00,,,0.00,Wunderground v.1.15,2013-06-02 23:20:00,
2013-06-02 16:25:00,69.9,52.5,30.03,ENE,70,1.0,4.0,54,0.00,,,0.00,Wunderground v.1.15,2013-06-02 23:25:00,
2013-06-02 16:30:00,69.5,51.1,30.03,WNW,295,1.0,4.0,52,0.00,,,0.00,Wunderground v.1.15,2013-06-02 23:30:00,
2013-06-02 16:35:00,68.5,53.1,30.03,WSW,248,1.0,4.0,58,0.00,,,0.00,Wunderground v.1.15,2013-06-02 23:35:00,
2013-06-02 16:45:00,68.8,53.9,30.03,WSW,238,2.0,4.0,59,0.00,,,0.00,Wunderground v.1.15,2013-06-02 23:45:00,
2013-06-02 16:50:00,68.4,51.1,30.03,WSW,238,2.0,2.0,54,0.00,,,0.00,Wunderground v.1.15,2013-06-02 23:50:00,
2013-06-02 16:55:00,68.5,52.2,30.03,South,173,2.0,4.0,56,0.00,,,0.00,Wunderground v.1.15,2013-06-02 23:55:00,
2013-06-02 17:00:00,68.4,51.1,30.03,SSE,149,2.0,2.0,54,0.00,,,0.00,Wunderground v.1.15,2013-06-03 00:00:00,
2013-06-02 17:05:00,68.1,51.3,30.03,ESE,108,1.0,4.0,55,0.00,,,0.00,Wunderground v.1.15,2013-06-03 00:05:00,
2013-06-02 17:15:00,68.5,52.2,30.03,NW,307,2.0,4.0,56,0.00,,,0.00,Wunderground v.1.15,2013-06-03 00:15:00,
2013-06-02 17:20:00,69.0,51.2,30.03,West,263,1.0,1.0,53,0.00,,,0.00,Wunderground v.1.15,2013-06-03 00:20:00,
2013-06-02 17:25:00,69.3,51.4,30.03,SSW,212,1.0,4.0,53,0.00,,,0.00,Wunderground v.1.15,2013-06-03 00:25:00,
2013-06-02 17:30:00,69.8,50.9,30.03,NNE,22,2.0,2.0,51,0.00,,,0.00,Wunderground v.1.15,2013-06-03 00:30:00,
2013-06-02 17:40:00,69.5,52.1,30.02,SW,233,2.0,2.0,54,0.00,,,0.00,Wunderground v.1.15,2013-06-03 00:40:00,
2013-06-02 17:45:00,69.4,49.9,30.02,SW,218,2.0,4.0,50,0.00,,,0.00,Wunderground v.1.15,2013-06-03 00:45:00,
2013-06-02 17:50:00,68.8,51.0,30.02,SW,223,2.0,4.0,53,0.00,,,0.00,Wunderground v.1.15,2013-06-03 00:50:00,
2013-06-02 17:55:00,68.8,50.5,30.02,SW,226,2.0,4.0,52,0.00,,,0.00,Wunderground v.1.15,2013-06-03 00:55:00,
2013-06-02 18:00:00,69.0,52.2,30.02,WSW,256,2.0,2.0,55,0.00,,,0.00,Wunderground v.1.15,2013-06-03 01:00:00,
2013-06-02 18:10:00,68.6,50.8,30.02,SE,141,2.0,2.0,53,0.00,,,0.00,Wunderground v.1.15,2013-06-03 01:10:00,
2013-06-02 18:15:00,69.1,50.7,30.02,SSE,147,1.0,4.0,52,0.00,,,0.00,Wunderground v.1.15,2013-06-03 01:15:00,
2013-06-02 18:20:00,69.2,51.8,30.02,SW,222,1.0,4.0,54,0.00,,,0.00,Wunderground v.1.15,2013-06-03 01:20:00,
2013-06-02 18:25:00,68.5,50.7,30.02,SW,231,2.0,4.0,53,0.00,,,0.00,Wunderground v.1.15,2013-06-03 01:25:00,
2013-06-02 18:35:00,67.7,51.4,30.02,SE,144,1.0,4.0,56,0.00,,,0.00,Wunderground v.1.15,2013-06-03 01:35:00,
2013-06-02 18:40:00,66.9,49.7,30.02,SSE,165,1.0,4.0,54,0.00,,,0.00,Wunderground v.1.15,2013-06-03 01:40:00,
2013-06-02 18:45:00,66.4,50.7,30.02,SE,134,1.0,4.0,57,0.00,,,0.00,Wunderground v.1.15,2013-06-03 01:45:00,
2013-06-02 18:50:00,65.8,51.5,30.02,North,10,0.0,4.0,60,0.00,,,0.00,Wunderground v.1.15,2013-06-03 01:50:00,
2013-06-02 18:55:00,65.2,50.5,30.02,WSW,245,0.0,4.0,59,0.00,,,0.00,Wunderground v.1.15,2013-06-03 01:55:00,
2013-06-02 19:05:00,64.6,50.8,30.02,South,188,0.0,4.0,61,0.00,,,0.00,Wunderground v.1.15,2013-06-03 02:05:00,
2013-06-02 19:10:00,64.3,51.0,30.02,SW,217,1.0,4.0,62,0.00,,,0.00,Wunderground v.1.15,2013-06-03 02:10:00,
2013-06-02 19:15:00,63.9,50.6,30.02,NNW,342,1.0,4.0,62,0.00,,,0.00,Wunderground v.1.15,2013-06-03 02:15:00,
2013-06-02 19:25:00,63.5,50.7,30.02,SW,236,1.0,4.0,63,0.00,,,0.00,Wunderground v.1.15,2013-06-03 02:25:00,
2013-06-02 19:30:00,63.3,50.1,30.02,SSW,204,0.0,4.0,62,0.00,,,0.00,Wunderground v.1.15,2013-06-03 02:30:00,
2013-06-02 19:35:00,63.0,50.6,30.02,North,7,1.0,4.0,64,0.00,,,0.00,Wunderground v.1.15,2013-06-03 02:35:00,
2013-06-02 19:40:00,62.8,50.4,30.02,SW,233,0.0,4.0,64,0.00,,,0.00,Wunderground v.1.15,2013-06-03 02:40:00,
2013-06-02 19:50:00,62.4,50.9,30.02,SW,233,1.0,1.0,66,0.00,,,0.00,Wunderground v.1.15,2013-06-03 02:50:00,
2013-06-02 19:55:00,62.2,51.1,30.02,SW,229,1.0,4.0,67,0.00,,,0.00,Wunderground v.1.15,2013-06-03 02:55:00,
2013-06-02 20:00:00,61.8,50.7,30.02,SW,214,0.0,4.0,67,0.00,,,0.00,Wunderground v.1.15,2013-06-03 03:00:00,
2013-06-02 20:05:00,61.5,50.8,30.02,South,188,0.0,4.0,68,0.00,,,0.00,Wunderground v.1.15,2013-06-03 03:05:00,
2013-06-02 20:15:00,61.2,50.9,30.02,SW,225,0.0,4.0,69,0.00,,,0.00,Wunderground v.1.15,2013-06-03 03:15:00,
2013-06-02 20:20:00,60.9,51.0,30.02,WSW,255,0.0,4.0,70,0.00,,,0.00,Wunderground v.1.15,2013-06-03 03:20:00,
2013-06-02 20:25:00,60.5,51.8,30.03,WSW,255,0.0,4.0,73,0.00,,,0.00,Wunderground v.1.15,2013-06-03 03:25:00,
2013-06-02 20:35:00,59.5,51.9,30.03,WSW,255,0.0,4.0,76,0.00,,,0.00,Wunderground v.1.15,2013-06-03 03:35:00,
2013-06-02 20:36:00,60.0,51.7,30.03,SW,225,0.0,-999.0,74,0.00,,,0.00,Wunderground v.1.15,2013-06-03 03:36:00,
2013-06-02 20:40:00,58.7,51.5,30.03,WSW,255,0.0,4.0,77,0.00,,,0.00,Wunderground v.1.15,2013-06-03 03:40:00,
2013-06-02 20:41:00,60.0,51.7,30.03,SW,225,0.0,-999.0,74,0.00,,,0.00,Wunderground v.1.15,2013-06-03 03:41:00,
2013-06-02 20:45:00,57.9,50.7,30.03,WSW,255,0.0,4.0,77,0.00,,,0.00,Wunderground v.1.15,2013-06-03 03:45:00,
2013-06-02 20:46:00,56.1,47.6,30.04,WSW,248,0.0,-999.0,73,0.00,,,0.00,Wunderground v.1.15,2013-06-03 03:46:00,
2013-06-02 20:51:00,56.1,47.6,30.04,WSW,248,0.0,-999.0,73,0.00,,,0.00,Wunderground v.1.15,2013-06-03 03:51:00,
2013-06-02 20:55:00,56.6,48.4,30.03,WSW,255,0.0,4.0,74,0.00,,,0.00,Wunderground v.1.15,2013-06-03 03:55:00,
2013-06-02 20:56:00,56.1,47.6,30.04,WSW,248,0.0,-999.0,73,0.00,,,0.00,Wunderground v.1.15,2013-06-03 03:56:00,
2013-06-02 21:00:00,56.1,47.6,30.04,WSW,255,0.0,4.0,73,0.00,,,0.00,Wunderground v.1.15,2013-06-03 04:00:00,
2013-06-02 21:01:00,56.1,47.6,30.04,WSW,248,0.0,-999.0,73,0.00,,,0.00,Wunderground v.1.15,2013-06-03 04:01:00,
2013-06-02 21:05:00,55.5,45.9,30.04,WSW,255,0.0,4.0,70,0.00,,,0.00,Wunderground v.1.15,2013-06-03 04:05:00,
2013-06-02 21:06:00,56.1,47.6,30.04,WSW,248,0.0,-999.0,73,0.00,,,0.00,Wunderground v.1.15,2013-06-03 04:06:00,
2013-06-02 21:10:00,55.1,44.3,30.04,WSW,255,0.0,4.0,67,0.00,,,0.00,Wunderground v.1.15,2013-06-03 04:10:00,
2013-06-02 21:11:00,56.1,47.6,30.04,WSW,248,0.0,-999.0,73,0.00,,,0.00,Wunderground v.1.15,2013-06-03 04:11:00,
2013-06-02 21:15:00,54.6,42.3,30.04,WSW,255,0.0,4.0,63,0.00,,,0.00,Wunderground v.1.15,2013-06-03 04:15:00,
2013-06-02 21:16:00,53.4,35.7,30.04,NNE,23,0.0,-999.0,51,0.00,,,0.00,Wunderground v.1.15,2013-06-03 04:16:00,
2013-06-02 21:20:00,54.2,40.2,30.04,WSW,255,0.0,4.0,59,0.00,,,0.00,Wunderground v.1.15,2013-06-03 04:20:00,
2013-06-02 21:21:00,53.4,35.7,30.04,NNE,23,0.0,-999.0,51,0.00,,,0.00,Wunderground v.1.15,2013-06-03 04:21:00,
2013-06-02 21:25:00,53.8,38.0,30.04,NNE,13,0.0,4.0,55,0.00,,,0.00,Wunderground v.1.15,2013-06-03 04:25:00,
2013-06-02 21:26:00,53.4,35.7,30.04,NNE,23,0.0,-999.0,51,0.00,,,0.00,Wunderground v.1.15,2013-06-03 04:26:00,
2013-06-02 21:30:00,53.4,35.7,30.04,NNE,13,0.0,4.0,51,0.00,,,0.00,Wunderground v.1.15,2013-06-03 04:30:00,
2013-06-02 21:31:00,53.4,35.7,30.04,NNE,23,0.0,-999.0,51,0.00,,,0.00,Wunderground v.1.15,2013-06-03 04:31:00,
2013-06-02 21:35:00,53.0,32.2,30.04,NNE,13,0.0,4.0,45,0.00,,,0.00,Wunderground v.1.15,2013-06-03 04:35:00,
2013-06-02 21:36:00,53.4,35.7,30.04,NNE,23,0.0,-999.0,51,0.00,,,0.00,Wunderground v.1.15,2013-06-03 04:36:00,
2013-06-02 21:41:00,53.4,35.7,30.04,NNE,23,0.0,-999.0,51,0.00,,,0.00,Wunderground v.1.15,2013-06-03 04:41:00,
2013-06-02 21:45:00,52.5,25.6,30.05,NNE,13,0.0,4.0,35,0.00,,,0.00,Wunderground v.1.15,2013-06-03 04:45:00,
2013-06-02 21:46:00,51.8,13.0,30.05,NNE,23,0.0,-999.0,21,0.00,,,0.00,Wunderground v.1.15,2013-06-03 04:46:00,
2013-06-02 21:50:00,52.2,20.9,30.05,NNE,13,0.0,4.0,29,0.00,,,0.00,Wunderground v.1.15,2013-06-03 04:50:00,
2013-06-02 21:51:00,51.8,13.0,30.05,NNE,23,0.0,-999.0,21,0.00,,,0.00,Wunderground v.1.15,2013-06-03 04:51:00,
2013-06-02 21:56:00,51.8,13.0,30.05,NNE,23,0.0,-999.0,21,0.00,,,0.00,Wunderground v.1.15,2013-06-03 04:56:00,
2013-06-02 22:01:00,51.8,13.0,30.05,NNE,23,0.0,-999.0,21,0.00,,,0.00,Wunderground v.1.15,2013-06-03 05:01:00,
2013-06-02 22:06:00,51.8,13.0,30.05,NNE,23,0.0,-999.0,21,0.00,,,0.00,Wunderground v.1.15,2013-06-03 05:06:00,
2013-06-02 22:11:00,51.8,13.0,30.05,NNE,23,0.0,-999.0,21,0.00,,,0.00,Wunderground v.1.15,2013-06-03 05:11:00,
2013-06-02 22:16:00,50.7,-47.0,30.06,NNE,23,0.0,-999.0,1,0.00,,,0.00,Wunderground v.1.15,2013-06-03 05:16:00,
2013-06-02 22:21:00,50.7,-47.0,30.06,NNE,23,0.0,-999.0,1,0.00,,,0.00,Wunderground v.1.15,2013-06-03 05:21:00,
2013-06-02 22:26:00,50.7,-47.0,30.06,NNE,23,0.0,-999.0,1,0.00,,,0.00,Wunderground v.1.15,2013-06-03 05:26:00,
2013-06-02 22:50:00,50.1,-99.9,30.06,NNE,12,0.0,0.0,0,0.00,,,0.00,Wunderground v.1.15,2013-06-03 05:50:00,
2013-06-02 22:55:00,50.0,-99.9,30.07,NNE,12,0.0,0.0,0,0.00,,,0.00,Wunderground v.1.15,2013-06-03 05:55:00,
2013-06-02 23:00:00,49.7,-99.9,30.07,NNE,13,0.0,0.0,0,0.00,,,0.00,Wunderground v.1.15,2013-06-03 06:00:00,
2013-06-02 23:05:00,49.5,-99.9,30.07,NNE,12,0.0,0.0,0,0.00,,,0.00,Wunderground v.1.15,2013-06-03 06:05:00,
2013-06-02 23:15:00,49.3,-99.9,30.07,NNE,12,0.0,0.0,0,0.00,,,0.00,Wunderground v.1.15,2013-06-03 06:15:00,
2013-06-02 23:20:00,49.1,-99.9,30.07,NNE,12,0.0,0.0,0,0.00,,,0.00,Wunderground v.1.15,2013-06-03 06:20:00,
2013-06-02 23:25:00,49.1,-99.9,30.07,NNE,12,0.0,0.0,0,0.00,,,0.00,Wunderground v.1.15,2013-06-03 06:25:00,
2013-06-02 23:30:00,49.1,-99.9,30.07,NNE,12,0.0,0.0,0,0.00,,,0.00,Wunderground v.1.15,2013-06-03 06:30:00,
2013-06-02 23:35:00,49.0,-99.9,30.07,North,349,0.0,1.0,0,0.00,,,0.00,Wunderground v.1.15,2013-06-03 06:35:00,
2013-06-02 23:45:00,48.7,-99.9,30.07,North,349,0.0,1.0,0,0.00,,,0.00,Wunderground v.1.15,2013-06-03 06:45:00,
2013-06-02 23:50:00,48.5,-99.9,30.07,North,349,0.0,1.0,0,0.00,,,0.00,Wunderground v.1.15,2013-06-03 06:50:00,
2013-06-02 23:55:00,48.5,-99.9,30.06,North,349,0.0,1.0,0,0.00,,,0.00,Wunderground v.1.15,2013-06-03 06:55:00,